Weather History for KMFR - June, 2013

Change the Weather History Date:

Sunday, June 30, 2013

  Actual Average Record
Temperature  
Mean Temperature 83 °F 71 °F  
Max Temperature 102 °F 86 °F 105 °F (1942)
Min Temperature 64 °F 55 °F 40 °F (1919)
Degree Days  
Heating Degree Days 0 1  
Month to date heating degree days 35 55  
Since 1 June heating degree days 35 54  
Since 1 July heating degree days 4037 4251  
Cooling Degree Days 18 6  
Month to date cooling degree days 146 108  
Year to date cooling degree days 181 146  
Since 1 June cooling degree days 146 108  
Growing Degree Days 34 (Base 50)    
Moisture  
Dew Point 55 °F    
Average Humidity 44    
Maximum Humidity 68    
Minimum Humidity 19    
Precipitation  
Precipitation 0.00 in 0.01 in 0.98 in (1992)
Month to date precipitation 0.39 0.62  
Year to date precipitation 4.13 9.46  
Snow  
Snow 0.00 in 0.00 in - ()
Month to date snowfall 0.0 0.0  
Since 1 July snowfall 1.7 4.1  
Snow Depth 0.00 in    
Sea Level Pressure  
Sea Level Pressure 29.87 in    
Wind  
Wind Speed 4 mph (NW)    
Max Wind Speed 18 mph    
Max Gust Speed 22 mph    
Visibility 10 miles    
Events      
T = Trace of Precipitation, MM = Missing Value Source: NWS Daily Summary

Daily Weather History Graph

Daily Weather History Graph

Search for Another Location

Airport or City:

Trip Planner

Search our weather history database for the weather conditions in past years. The results will help you decide how hot, cold, wet, or windy it might be!

Date:

Astronomy

Jun. 30, 2013 Rise Set
Actual Time 5:38 AM PDT 8:52 PM PDT
Civil Twilight 5:03 AM PDT 9:26 PM PDT
Nautical Twilight 4:18 AM PDT 10:11 PM PDT
Astronomical Twilight 3:24 AM PDT 11:05 PM PDT
Moon 12:45 AM PDT 2:07 PM PDT
Length of Visible Light 16h 23m
Length of Day
15h 14m
Last Quarter, 44% of the Moon is Illuminated
Jun 30
Last Quarter
Jul 8
New
Jul 15
First Quarter
Jul 22
Full
Jul 29
Last Quarter

Hourly Weather History & Observations

Time (PDT) Temp. Heat Index Dew Point Humidity Pressure Visibility Wind Dir Wind Speed Gust Speed Precip Events Conditions
12:53 AM 75.0 °F - 55.0 °F 50% 29.94 in 10.0 mi South 4.6 mph - 0.01 in   Clear
1:53 AM 70.0 °F - 54.0 °F 57% 29.93 in 10.0 mi Calm Calm - N/A   Clear
2:53 AM 66.9 °F - 54.0 °F 63% 29.93 in 10.0 mi Calm Calm - N/A   Clear
3:53 AM 66.0 °F - 54.0 °F 65% 29.93 in 10.0 mi Calm Calm - N/A   Clear
4:53 AM 66.0 °F - 55.0 °F 68% 29.94 in 10.0 mi Calm Calm - N/A   Clear
5:53 AM 66.0 °F - 54.0 °F 65% 29.94 in 10.0 mi Calm Calm - N/A   Clear
6:53 AM 66.0 °F - 55.0 °F 68% 29.94 in 10.0 mi Calm Calm - N/A   Clear
7:53 AM 70.0 °F - 54.0 °F 57% 29.95 in 10.0 mi Calm Calm - N/A   Clear
8:53 AM 73.9 °F - 55.0 °F 52% 29.94 in 10.0 mi Calm Calm - N/A   Clear
9:53 AM 79.0 °F - 54.0 °F 42% 29.92 in 10.0 mi Calm Calm - N/A   Clear
10:53 AM 82.9 °F 81.9 °F 54.0 °F 37% 29.90 in 10.0 mi Calm Calm - 0.02 in   Clear
11:53 AM 87.1 °F - 52.0 °F 30% 29.88 in 10.0 mi WNW 4.6 mph - 0.01 in   Clear
12:53 PM 91.9 °F 89.5 °F 54.0 °F 27% 29.85 in 10.0 mi Variable 3.5 mph - 0.01 in   Clear
1:53 PM 95.0 °F 92.7 °F 54.0 °F 25% 29.83 in 10.0 mi NW 4.6 mph - 0.04 in   Clear
2:53 PM 98.1 °F 96.1 °F 54.0 °F 23% 29.81 in 10.0 mi NW 10.4 mph - 0.02 in   Clear
3:53 PM 100.0 °F 97.9 °F 53.1 °F 21% 29.80 in 10.0 mi WNW 15.0 mph 21.9 mph 0.02 in   Clear
4:53 PM 100.9 °F - 52.0 °F 19% 29.78 in 10.0 mi WNW 11.5 mph - N/A   Clear
5:53 PM 100.0 °F - 52.0 °F 20% 29.77 in 10.0 mi WNW 11.5 mph - 0.01 in   Clear
6:53 PM 100.0 °F 97.9 °F 53.1 °F 21% 29.77 in 10.0 mi WNW 11.5 mph - N/A   Clear
7:12 PM 96.8 °F 95.8 °F 57.2 °F 27% 29.82 in 10.0 mi North 13.8 mph 20.7 mph N/A   Clear
7:53 PM 93.9 °F 93.2 °F 59.0 °F 31% 29.79 in 10.0 mi NNW 10.4 mph - N/A   Clear
8:53 PM 89.1 °F 88.8 °F 60.1 °F 38% 29.81 in 10.0 mi NNW 6.9 mph - N/A   Clear
9:53 PM 87.1 °F 87.0 °F 61.0 °F 41% 29.83 in 10.0 mi NNW 5.8 mph - N/A   Clear
10:53 PM 82.9 °F 83.3 °F 61.0 °F 47% 29.86 in 10.0 mi NW 4.6 mph - N/A   Clear
11:53 PM 81.0 °F 81.6 °F 60.1 °F 49% 29.86 in 10.0 mi NW 4.6 mph - N/A   Clear